Time,TemperatureF,DewpointF,PressureIn,WindDirection,WindDirectionDegrees,WindSpeedMPH,WindSpeedGustMPH,Humidity,HourlyPrecipIn,Conditions,Clouds,dailyrainin,SoftwareType,DateUTC
2013-05-07 00:02:00,38.3,38.1,30.07,ESE,116,4.0,18.0,99,0.02,,,1.13,meteohub,2013-05-07 07:02:00,
2013-05-07 00:07:00,38.1,37.9,30.08,SW,225,4.0,18.0,99,0.02,,,0.00,meteohub,2013-05-07 07:07:00,
2013-05-07 00:12:00,38.1,37.9,30.08,East,82,9.0,13.0,99,0.03,,,0.01,meteohub,2013-05-07 07:12:00,
2013-05-07 00:17:00,38.1,37.9,30.08,NE,37,4.0,15.0,99,0.02,,,0.01,meteohub,2013-05-07 07:17:00,
2013-05-07 00:22:00,37.9,37.8,30.08,South,185,6.0,16.0,99,0.02,,,0.01,meteohub,2013-05-07 07:22:00,
2013-05-07 00:27:00,37.9,37.8,30.08,South,181,6.0,16.0,99,0.02,,,0.01,meteohub,2013-05-07 07:27:00,
2013-05-07 00:32:00,37.9,37.8,30.09,ENE,77,4.0,20.0,99,0.02,,,0.01,meteohub,2013-05-07 07:32:00,
2013-05-07 00:37:00,37.9,37.8,30.09,SSW,200,4.0,20.0,99,0.02,,,0.01,meteohub,2013-05-07 07:37:00,
2013-05-07 00:42:00,37.9,37.8,30.09,West,264,1.0,20.0,99,0.01,,,0.01,meteohub,2013-05-07 07:42:00,
2013-05-07 00:47:00,37.9,37.8,30.09,South,187,3.0,14.0,99,0.01,,,0.01,meteohub,2013-05-07 07:47:00,
2013-05-07 00:57:00,37.8,37.6,30.09,NNE,33,1.0,13.0,99,0.01,,,0.01,meteohub,2013-05-07 07:57:00,
2013-05-07 01:02:00,37.8,37.6,30.09,WSW,255,3.0,13.0,99,0.01,,,0.01,meteohub,2013-05-07 08:02:00,
2013-05-07 01:07:00,37.8,37.6,30.09,North,1,2.0,12.0,99,0.01,,,0.01,meteohub,2013-05-07 08:07:00,
2013-05-07 01:12:00,37.6,37.4,30.09,NE,51,3.0,12.0,99,0.00,,,0.01,meteohub,2013-05-07 08:12:00,
2013-05-07 01:17:00,37.6,37.4,30.09,SSW,193,1.0,14.0,99,0.00,,,0.01,meteohub,2013-05-07 08:17:00,
2013-05-07 01:22:00,37.6,37.4,30.09,SE,131,3.0,14.0,99,0.00,,,0.01,meteohub,2013-05-07 08:22:00,
2013-05-07 01:27:00,37.6,37.4,30.09,ESE,123,1.0,12.0,99,0.00,,,0.01,meteohub,2013-05-07 08:27:00,
2013-05-07 01:32:00,37.6,37.4,30.09,SSE,166,1.0,12.0,99,0.00,,,0.01,meteohub,2013-05-07 08:32:00,
2013-05-07 01:37:00,37.6,37.4,30.09,WNW,283,0.0,10.0,99,0.00,,,0.01,meteohub,2013-05-07 08:37:00,
2013-05-07 01:42:00,37.6,37.4,30.09,SSW,193,0.0,9.0,99,0.00,,,0.01,meteohub,2013-05-07 08:42:00,
2013-05-07 01:47:00,37.4,37.2,30.09,ENE,75,1.0,7.0,99,0.01,,,0.02,meteohub,2013-05-07 08:47:00,
2013-05-07 01:52:00,37.2,37.0,30.08,ENE,72,7.0,11.0,99,0.01,,,0.02,meteohub,2013-05-07 08:52:00,
2013-05-07 01:57:00,37.0,36.9,30.08,ESE,111,8.0,11.0,99,0.01,,,0.02,meteohub,2013-05-07 08:57:00,
2013-05-07 02:02:00,36.9,36.7,30.08,ESE,105,5.0,14.0,99,0.01,,,0.02,meteohub,2013-05-07 09:02:00,
2013-05-07 02:07:00,36.9,36.7,30.08,East,99,4.0,14.0,99,0.02,,,0.03,meteohub,2013-05-07 09:07:00,
2013-05-07 02:12:00,36.9,36.7,30.07,ESE,104,5.0,16.0,99,0.02,,,0.03,meteohub,2013-05-07 09:12:00,
2013-05-07 02:17:00,36.9,36.7,30.07,ESE,110,5.0,16.0,99,0.02,,,0.03,meteohub,2013-05-07 09:17:00,
2013-05-07 02:22:00,37.0,36.9,30.07,NE,49,0.0,15.0,99,0.02,,,0.03,meteohub,2013-05-07 09:22:00,
2013-05-07 02:27:00,37.0,36.9,30.07,East,84,7.0,14.0,99,0.02,,,0.03,meteohub,2013-05-07 09:27:00,
2013-05-07 02:32:00,37.0,36.9,30.07,ESE,119,4.0,15.0,99,0.02,,,0.03,meteohub,2013-05-07 09:32:00,
2013-05-07 02:37:00,37.0,36.9,30.07,SE,127,4.0,18.0,99,0.02,,,0.03,meteohub,2013-05-07 09:37:00,
2013-05-07 02:42:00,37.0,36.9,30.07,ESE,110,4.0,18.0,99,0.02,,,0.03,meteohub,2013-05-07 09:42:00,
2013-05-07 02:47:00,37.2,37.0,30.07,ESE,117,9.0,18.0,99,0.01,,,0.03,meteohub,2013-05-07 09:47:00,
2013-05-07 02:52:00,37.0,36.9,30.07,East,89,2.0,17.0,99,0.01,,,0.03,meteohub,2013-05-07 09:52:00,
2013-05-07 02:57:00,37.2,37.0,30.07,ESE,115,2.0,15.0,99,0.01,,,0.03,meteohub,2013-05-07 09:57:00,
2013-05-07 03:02:00,37.2,37.0,30.08,ESE,111,5.0,15.0,99,0.01,,,0.03,meteohub,2013-05-07 10:02:00,
2013-05-07 03:07:00,37.2,37.0,30.08,SE,141,7.0,13.0,99,0.00,,,0.03,meteohub,2013-05-07 10:07:00,
2013-05-07 03:12:00,37.2,37.0,30.08,ESE,114,12.0,12.0,99,0.00,,,0.03,meteohub,2013-05-07 10:12:00,
2013-05-07 03:17:00,37.0,36.9,30.08,ESE,107,3.0,13.0,99,0.01,,,0.04,meteohub,2013-05-07 10:17:00,
2013-05-07 03:22:00,37.0,36.9,30.08,East,81,3.0,13.0,99,0.01,,,0.04,meteohub,2013-05-07 10:22:00,
2013-05-07 03:27:00,37.0,36.9,30.08,SSE,153,0.0,13.0,99,0.01,,,0.04,meteohub,2013-05-07 10:27:00,
2013-05-07 03:32:00,37.0,36.9,30.08,East,97,4.0,11.0,99,0.01,,,0.04,meteohub,2013-05-07 10:32:00,
2013-05-07 03:37:00,36.9,36.7,30.07,ESE,114,6.0,12.0,99,0.01,,,0.04,meteohub,2013-05-07 10:37:00,
2013-05-07 03:42:00,36.9,36.7,30.08,East,87,3.0,13.0,99,0.01,,,0.04,meteohub,2013-05-07 10:42:00,
2013-05-07 03:47:00,36.9,36.7,30.07,WNW,290,4.0,13.0,99,0.01,,,0.04,meteohub,2013-05-07 10:47:00,
2013-05-07 03:52:00,36.7,36.5,30.07,South,190,5.0,13.0,99,0.01,,,0.04,meteohub,2013-05-07 10:52:00,
2013-05-07 03:57:00,36.7,36.5,30.07,NNE,18,0.0,11.0,99,0.01,,,0.04,meteohub,2013-05-07 10:57:00,
2013-05-07 04:02:00,36.7,36.5,30.07,SW,231,1.0,10.0,99,0.01,,,0.04,meteohub,2013-05-07 11:02:00,
2013-05-07 04:07:00,36.9,36.7,30.07,South,188,0.0,9.0,99,0.01,,,0.04,meteohub,2013-05-07 11:07:00,
2013-05-07 04:12:00,36.9,36.7,30.06,SSW,203,0.0,8.0,99,0.01,,,0.04,meteohub,2013-05-07 11:12:00,
2013-05-07 04:17:00,36.9,36.7,30.06,East,94,3.0,8.0,99,0.00,,,0.04,meteohub,2013-05-07 11:17:00,
2013-05-07 04:22:00,36.9,36.7,30.06,SW,219,0.0,8.0,99,0.00,,,0.04,meteohub,2013-05-07 11:22:00,
2013-05-07 04:27:00,37.0,36.9,30.06,SE,132,3.0,8.0,99,0.00,,,0.04,meteohub,2013-05-07 11:27:00,
2013-05-07 04:32:00,36.9,36.7,30.06,South,187,0.0,8.0,99,0.00,,,0.04,meteohub,2013-05-07 11:32:00,
2013-05-07 04:37:00,37.0,36.9,30.07,ESE,107,1.0,6.0,99,0.00,,,0.04,meteohub,2013-05-07 11:37:00,
2013-05-07 04:42:00,37.0,36.9,30.07,SE,139,0.0,6.0,99,0.00,,,0.04,meteohub,2013-05-07 11:42:00,
2013-05-07 04:47:00,37.0,36.9,30.07,NE,50,0.0,5.0,99,0.00,,,0.04,meteohub,2013-05-07 11:47:00,
2013-05-07 04:52:00,37.0,36.9,30.07,East,80,2.0,4.0,99,0.00,,,0.04,meteohub,2013-05-07 11:52:00,
2013-05-07 04:57:00,36.9,36.7,30.07,SSW,193,0.0,5.0,99,0.00,,,0.04,meteohub,2013-05-07 11:57:00,
2013-05-07 05:02:00,36.9,36.7,30.07,SSE,162,2.0,5.0,99,0.00,,,0.04,meteohub,2013-05-07 12:02:00,
2013-05-07 05:07:00,36.7,36.5,30.07,SW,221,2.0,9.0,99,0.00,,,0.04,meteohub,2013-05-07 12:07:00,
2013-05-07 05:12:00,36.7,36.5,30.06,SE,130,2.0,9.0,99,0.00,,,0.04,meteohub,2013-05-07 12:12:00,
2013-05-07 05:17:00,36.7,36.5,30.06,WSW,238,3.0,10.0,99,0.00,,,0.04,meteohub,2013-05-07 12:17:00,
2013-05-07 05:22:00,36.5,36.3,30.07,East,96,4.0,10.0,99,0.00,,,0.04,meteohub,2013-05-07 12:22:00,
2013-05-07 05:27:00,36.5,36.3,30.06,SSE,167,0.0,10.0,99,0.00,,,0.04,meteohub,2013-05-07 12:27:00,
2013-05-07 05:32:00,36.3,36.1,30.06,SSW,207,3.0,9.0,99,0.00,,,0.04,meteohub,2013-05-07 12:32:00,
2013-05-07 05:37:00,36.0,35.8,30.06,East,94,2.0,10.0,99,0.00,,,0.04,meteohub,2013-05-07 12:37:00,
2013-05-07 05:42:00,35.8,35.6,30.06,SE,127,2.0,11.0,99,0.00,,,0.04,meteohub,2013-05-07 12:42:00,
2013-05-07 05:47:00,35.8,35.6,30.06,SE,131,4.0,11.0,99,0.00,,,0.04,meteohub,2013-05-07 12:47:00,
2013-05-07 05:52:00,35.8,35.6,30.06,SE,139,3.0,11.0,99,0.00,,,0.04,meteohub,2013-05-07 12:52:00,
2013-05-07 05:57:00,36.0,35.8,30.06,SW,221,1.0,11.0,99,0.00,,,0.04,meteohub,2013-05-07 12:57:00,
2013-05-07 06:02:00,36.1,36.0,30.07,ESE,104,0.0,14.0,99,0.00,,,0.04,meteohub,2013-05-07 13:02:00,
2013-05-07 06:07:00,36.3,36.1,30.07,NNW,338,5.0,14.0,99,0.00,,,0.04,meteohub,2013-05-07 13:07:00,
2013-05-07 06:12:00,36.3,36.1,30.06,SE,131,8.0,14.0,99,0.00,,,0.04,meteohub,2013-05-07 13:12:00,
2013-05-07 06:17:00,36.5,36.3,30.06,South,169,7.0,13.0,99,0.00,,,0.04,meteohub,2013-05-07 13:17:00,
2013-05-07 06:22:00,36.7,36.5,30.06,ESE,104,3.0,13.0,99,0.00,,,0.04,meteohub,2013-05-07 13:22:00,
2013-05-07 06:27:00,36.7,36.5,30.07,WNW,285,0.0,13.0,99,0.00,,,0.04,meteohub,2013-05-07 13:27:00,
2013-05-07 06:32:00,36.9,36.7,30.07,SE,131,1.0,11.0,99,0.00,,,0.04,meteohub,2013-05-07 13:32:00,
2013-05-07 06:37:00,36.9,36.7,30.07,South,169,1.0,15.0,99,0.00,,,0.04,meteohub,2013-05-07 13:37:00,
2013-05-07 06:42:00,36.9,36.7,30.07,ESE,122,4.0,15.0,99,0.00,,,0.04,meteohub,2013-05-07 13:42:00,
2013-05-07 06:47:00,36.9,36.7,30.07,SSE,152,4.0,10.0,99,0.00,,,0.04,meteohub,2013-05-07 13:47:00,
2013-05-07 06:52:00,37.0,36.9,30.08,East,101,2.0,12.0,99,0.00,,,0.04,meteohub,2013-05-07 13:52:00,
2013-05-07 06:57:00,37.0,36.9,30.07,East,94,14.0,14.0,99,0.00,,,0.04,meteohub,2013-05-07 13:57:00,
2013-05-07 07:02:00,37.0,36.9,30.08,SE,140,1.0,16.0,99,0.00,,,0.04,meteohub,2013-05-07 14:02:00,
2013-05-07 07:07:00,37.0,36.9,30.08,SE,139,1.0,16.0,99,0.00,,,0.04,meteohub,2013-05-07 14:07:00,
2013-05-07 07:12:00,37.0,36.9,30.08,SW,223,5.0,16.0,99,0.00,,,0.04,meteohub,2013-05-07 14:12:00,
2013-05-07 07:17:00,37.2,37.0,30.08,ESE,117,9.0,12.0,99,0.00,,,0.04,meteohub,2013-05-07 14:17:00,
2013-05-07 07:22:00,37.2,37.0,30.08,SE,146,6.0,12.0,99,0.00,,,0.04,meteohub,2013-05-07 14:22:00,
2013-05-07 07:27:00,37.2,37.0,30.07,SE,134,7.0,12.0,99,0.00,,,0.04,meteohub,2013-05-07 14:27:00,
2013-05-07 07:32:00,37.2,37.0,30.08,SSE,151,10.0,12.0,99,0.00,,,0.04,meteohub,2013-05-07 14:32:00,
2013-05-07 07:37:00,37.4,37.2,30.08,WNW,295,6.0,12.0,99,0.00,,,0.04,meteohub,2013-05-07 14:37:00,
2013-05-07 07:42:00,37.6,37.4,30.07,SSE,165,6.0,15.0,99,0.00,,,0.04,meteohub,2013-05-07 14:42:00,
2013-05-07 07:47:00,37.6,37.4,30.08,East,99,5.0,16.0,99,0.00,,,0.04,meteohub,2013-05-07 14:47:00,
2013-05-07 07:52:00,37.6,37.4,30.08,South,170,2.0,18.0,99,0.00,,,0.04,meteohub,2013-05-07 14:52:00,
2013-05-07 07:57:00,37.6,37.4,30.08,SW,231,5.0,18.0,99,0.00,,,0.04,meteohub,2013-05-07 14:57:00,
2013-05-07 08:02:00,37.4,37.2,30.08,ESE,110,3.0,18.0,99,0.00,,,0.04,meteohub,2013-05-07 15:02:00,
2013-05-07 08:07:00,37.8,37.6,30.09,SSW,204,4.0,18.0,99,0.00,,,0.04,meteohub,2013-05-07 15:07:00,
2013-05-07 08:12:00,38.1,37.9,30.09,SE,136,5.0,18.0,99,0.00,,,0.04,meteohub,2013-05-07 15:12:00,
2013-05-07 08:17:00,38.1,37.9,30.09,SE,124,8.0,18.0,99,0.00,,,0.04,meteohub,2013-05-07 15:17:00,
2013-05-07 08:22:00,38.7,38.5,30.09,West,260,5.0,17.0,99,0.00,,,0.04,meteohub,2013-05-07 15:22:00,
2013-05-07 08:27:00,38.7,38.5,30.09,South,172,5.0,15.0,99,0.00,,,0.04,meteohub,2013-05-07 15:27:00,
2013-05-07 08:32:00,38.5,38.3,30.09,South,190,11.0,13.0,99,0.00,,,0.04,meteohub,2013-05-07 15:32:00,
2013-05-07 08:37:00,38.1,37.9,30.09,SSE,165,5.0,13.0,99,0.00,,,0.04,meteohub,2013-05-07 15:37:00,
2013-05-07 08:42:00,38.7,38.5,30.10,SSE,155,5.0,13.0,99,0.00,,,0.04,meteohub,2013-05-07 15:42:00,
2013-05-07 08:47:00,38.7,38.5,30.10,SE,127,2.0,13.0,99,0.00,,,0.04,meteohub,2013-05-07 15:47:00,
2013-05-07 08:52:00,38.5,38.3,30.11,SE,132,2.0,13.0,99,0.00,,,0.04,meteohub,2013-05-07 15:52:00,
2013-05-07 08:57:00,38.5,38.3,30.11,East,86,7.0,15.0,99,0.01,,,0.05,meteohub,2013-05-07 15:57:00,
2013-05-07 09:02:00,38.8,38.7,30.11,SSW,205,1.0,15.0,99,0.01,,,0.05,meteohub,2013-05-07 16:02:00,
2013-05-07 09:07:00,38.5,38.3,30.11,SE,129,5.0,15.0,99,0.01,,,0.05,meteohub,2013-05-07 16:07:00,
2013-05-07 09:12:00,38.7,38.5,30.11,SSE,153,3.0,12.0,99,0.01,,,0.05,meteohub,2013-05-07 16:12:00,
2013-05-07 09:17:00,38.5,38.3,30.12,SE,136,3.0,10.0,99,0.01,,,0.05,meteohub,2013-05-07 16:17:00,
2013-05-07 09:22:00,38.7,38.5,30.11,East,82,5.0,9.0,99,0.01,,,0.05,meteohub,2013-05-07 16:22:00,
2013-05-07 09:27:00,38.8,38.7,30.11,SSE,153,6.0,9.0,99,0.01,,,0.05,meteohub,2013-05-07 16:27:00,
2013-05-07 09:32:00,38.7,38.5,30.11,North,3,3.0,10.0,99,0.01,,,0.05,meteohub,2013-05-07 16:32:00,
2013-05-07 09:37:00,38.7,38.5,30.11,SW,229,4.0,10.0,99,0.01,,,0.05,meteohub,2013-05-07 16:37:00,
2013-05-07 09:42:00,38.8,38.7,30.12,East,98,0.0,10.0,99,0.01,,,0.05,meteohub,2013-05-07 16:42:00,
2013-05-07 09:47:00,38.8,38.7,30.12,ESE,107,4.0,10.0,99,0.01,,,0.05,meteohub,2013-05-07 16:47:00,
2013-05-07 09:52:00,39.0,38.8,30.12,SE,141,1.0,13.0,99,0.01,,,0.05,meteohub,2013-05-07 16:52:00,
2013-05-07 09:57:00,39.0,38.8,30.12,ESE,116,1.0,13.0,99,0.00,,,0.05,meteohub,2013-05-07 16:57:00,
2013-05-07 10:02:00,39.0,38.8,30.12,SE,136,6.0,13.0,99,0.00,,,0.05,meteohub,2013-05-07 17:02:00,
2013-05-07 10:07:00,38.8,38.3,30.12,SE,129,1.0,9.0,98,0.00,,,0.05,meteohub,2013-05-07 17:07:00,
2013-05-07 10:12:00,38.8,38.3,30.12,SW,218,2.0,11.0,98,0.00,,,0.05,meteohub,2013-05-07 17:12:00,
2013-05-07 10:17:00,39.2,38.7,30.12,SSW,210,4.0,11.0,98,0.00,,,0.05,meteohub,2013-05-07 17:17:00,
2013-05-07 10:22:00,39.4,38.8,30.12,SW,222,4.0,11.0,98,0.00,,,0.05,meteohub,2013-05-07 17:22:00,
2013-05-07 10:27:00,39.4,38.8,30.12,ESE,107,5.0,10.0,98,0.00,,,0.05,meteohub,2013-05-07 17:27:00,
2013-05-07 10:32:00,39.9,39.4,30.12,ESE,104,1.0,10.0,98,0.00,,,0.05,meteohub,2013-05-07 17:32:00,
2013-05-07 10:37:00,40.3,39.7,30.12,SSE,148,4.0,10.0,98,0.00,,,0.05,meteohub,2013-05-07 17:37:00,
2013-05-07 10:42:00,40.3,39.7,30.12,NW,310,1.0,9.0,98,0.00,,,0.05,meteohub,2013-05-07 17:42:00,
2013-05-07 10:47:00,40.3,39.7,30.12,ESE,117,2.0,9.0,98,0.00,,,0.05,meteohub,2013-05-07 17:47:00,
2013-05-07 10:52:00,40.6,40.1,30.12,South,186,3.0,13.0,98,0.00,,,0.05,meteohub,2013-05-07 17:52:00,
2013-05-07 10:57:00,41.5,41.0,30.12,ESE,108,2.0,13.0,98,0.00,,,0.05,meteohub,2013-05-07 17:57:00,
2013-05-07 11:02:00,41.5,41.0,30.12,South,179,7.0,13.0,98,0.00,,,0.05,meteohub,2013-05-07 18:02:00,
2013-05-07 11:07:00,41.2,40.6,30.12,SSE,153,7.0,15.0,98,0.00,,,0.05,meteohub,2013-05-07 18:07:00,
2013-05-07 11:12:00,41.5,41.0,30.12,SE,129,1.0,15.0,98,0.00,,,0.05,meteohub,2013-05-07 18:12:00,
2013-05-07 11:17:00,42.1,41.5,30.12,East,100,0.0,10.0,98,0.00,,,0.05,meteohub,2013-05-07 18:17:00,
2013-05-07 11:22:00,42.1,41.5,30.12,SSE,148,1.0,10.0,98,0.00,,,0.05,meteohub,2013-05-07 18:22:00,
2013-05-07 11:27:00,42.4,41.9,30.12,East,89,2.0,6.0,98,0.00,,,0.05,meteohub,2013-05-07 18:27:00,
2013-05-07 11:32:00,42.4,41.9,30.13,ESE,120,0.0,6.0,98,0.00,,,0.05,meteohub,2013-05-07 18:32:00,
2013-05-07 11:37:00,43.0,42.4,30.13,West,273,2.0,7.0,98,0.00,,,0.05,meteohub,2013-05-07 18:37:00,
2013-05-07 11:42:00,42.6,42.1,30.13,East,94,6.0,7.0,98,0.00,,,0.05,meteohub,2013-05-07 18:42:00,
2013-05-07 11:47:00,42.4,41.7,30.13,SSE,165,1.0,7.0,97,0.00,,,0.05,meteohub,2013-05-07 18:47:00,
2013-05-07 11:52:00,42.4,41.7,30.13,SSE,158,2.0,7.0,97,0.00,,,0.05,meteohub,2013-05-07 18:52:00,
2013-05-07 11:57:00,42.3,41.5,30.13,SE,132,2.0,8.0,97,0.00,,,0.05,meteohub,2013-05-07 18:57:00,
2013-05-07 12:02:00,42.3,41.5,30.13,ESE,117,7.0,10.0,97,0.00,,,0.05,meteohub,2013-05-07 19:02:00,
2013-05-07 12:07:00,42.3,41.5,30.12,SSE,163,6.0,12.0,97,0.00,,,0.05,meteohub,2013-05-07 19:07:00,
2013-05-07 12:12:00,42.4,41.7,30.12,SSE,155,8.0,12.0,97,0.00,,,0.05,meteohub,2013-05-07 19:12:00,
2013-05-07 12:17:00,43.2,42.6,30.12,SSW,204,6.0,12.0,98,0.00,,,0.05,meteohub,2013-05-07 19:17:00,
2013-05-07 12:22:00,43.3,42.8,30.12,SE,140,2.0,12.0,98,0.00,,,0.05,meteohub,2013-05-07 19:22:00,
2013-05-07 12:27:00,43.0,42.3,30.12,SSE,150,3.0,16.0,97,0.00,,,0.05,meteohub,2013-05-07 19:27:00,
2013-05-07 12:32:00,43.2,42.4,30.12,SE,133,2.0,16.0,97,0.00,,,0.05,meteohub,2013-05-07 19:32:00,
2013-05-07 12:37:00,43.0,42.3,30.12,East,84,5.0,16.0,97,0.00,,,0.05,meteohub,2013-05-07 19:37:00,
2013-05-07 12:42:00,43.0,42.3,30.12,SW,221,2.0,10.0,97,0.00,,,0.05,meteohub,2013-05-07 19:42:00,
2013-05-07 12:47:00,43.2,42.4,30.12,West,263,5.0,10.0,97,0.00,,,0.05,meteohub,2013-05-07 19:47:00,
2013-05-07 12:52:00,43.9,43.2,30.12,SW,229,2.0,12.0,97,0.00,,,0.05,meteohub,2013-05-07 19:52:00,
2013-05-07 12:57:00,44.4,43.9,30.12,ESE,103,2.0,12.0,98,0.00,,,0.05,meteohub,2013-05-07 19:57:00,
2013-05-07 13:02:00,44.4,43.7,30.12,WSW,238,1.0,12.0,97,0.00,,,0.05,meteohub,2013-05-07 20:02:00,
2013-05-07 13:07:00,44.1,43.0,30.11,SSW,195,12.0,12.0,96,0.00,,,0.05,meteohub,2013-05-07 20:07:00,
2013-05-07 13:12:00,44.2,43.5,30.12,ESE,122,4.0,13.0,97,0.00,,,0.05,meteohub,2013-05-07 20:12:00,
2013-05-07 13:17:00,44.4,43.3,30.11,SE,124,5.0,13.0,96,0.00,,,0.05,meteohub,2013-05-07 20:17:00,
2013-05-07 13:22:00,45.0,43.9,30.11,East,79,3.0,13.0,96,0.00,,,0.05,meteohub,2013-05-07 20:22:00,
2013-05-07 13:27:00,45.7,44.4,30.12,ESE,106,2.0,11.0,95,0.00,,,0.05,meteohub,2013-05-07 20:27:00,
2013-05-07 13:32:00,45.3,42.8,30.11,South,190,3.0,10.0,91,0.00,,,0.05,meteohub,2013-05-07 20:32:00,
2013-05-07 13:37:00,45.1,42.4,30.11,ESE,114,5.0,10.0,90,0.00,,,0.05,meteohub,2013-05-07 20:37:00,
2013-05-07 13:42:00,45.3,42.3,30.11,East,91,6.0,15.0,89,0.00,,,0.05,meteohub,2013-05-07 20:42:00,
2013-05-07 13:47:00,45.9,42.4,30.11,SE,138,2.0,15.0,88,0.00,,,0.05,meteohub,2013-05-07 20:47:00,
2013-05-07 13:52:00,46.0,42.4,30.11,ESE,107,3.0,11.0,87,0.00,,,0.05,meteohub,2013-05-07 20:52:00,
2013-05-07 13:57:00,46.0,43.0,30.11,ESE,108,4.0,12.0,89,0.00,,,0.05,meteohub,2013-05-07 20:57:00,
2013-05-07 14:02:00,46.8,43.2,30.11,ESE,108,4.0,12.0,87,0.00,,,0.05,meteohub,2013-05-07 21:02:00,
2013-05-07 14:07:00,46.9,42.6,30.11,SSE,166,6.0,12.0,85,0.00,,,0.05,meteohub,2013-05-07 21:07:00,
2013-05-07 14:17:00,46.6,42.6,30.12,SSE,159,3.0,10.0,86,0.00,,,0.05,meteohub,2013-05-07 21:17:00,
2013-05-07 14:22:00,46.6,42.6,30.11,ENE,63,5.0,10.0,86,0.00,,,0.05,meteohub,2013-05-07 21:22:00,
2013-05-07 14:27:00,46.8,42.4,30.11,SE,124,2.0,8.0,85,0.00,,,0.05,meteohub,2013-05-07 21:27:00,
2013-05-07 14:32:00,46.8,42.4,30.11,SE,138,4.0,8.0,85,0.00,,,0.05,meteohub,2013-05-07 21:32:00,
2013-05-07 14:37:00,46.8,42.4,30.11,SE,135,10.0,10.0,85,0.00,,,0.05,meteohub,2013-05-07 21:37:00,
2013-05-07 14:42:00,46.6,42.1,30.11,ESE,103,1.0,12.0,84,0.00,,,0.05,meteohub,2013-05-07 21:42:00,
2013-05-07 14:47:00,46.8,42.3,30.10,East,79,4.0,14.0,84,0.00,,,0.05,meteohub,2013-05-07 21:47:00,
2013-05-07 14:52:00,46.9,42.1,30.10,SE,133,8.0,14.0,83,0.00,,,0.05,meteohub,2013-05-07 21:52:00,
2013-05-07 14:57:00,46.9,42.1,30.10,SE,129,5.0,15.0,83,0.00,,,0.05,meteohub,2013-05-07 21:57:00,
2013-05-07 15:02:00,46.9,42.4,30.10,ESE,108,6.0,16.0,84,0.00,,,0.05,meteohub,2013-05-07 22:02:00,
2013-05-07 15:07:00,47.1,42.3,30.10,South,177,5.0,17.0,83,0.00,,,0.05,meteohub,2013-05-07 22:07:00,
2013-05-07 15:12:00,46.4,41.5,30.10,ESE,114,8.0,17.0,83,0.00,,,0.05,meteohub,2013-05-07 22:12:00,
2013-05-07 15:17:00,45.7,42.1,30.10,SSE,162,2.0,17.0,87,0.00,,,0.05,meteohub,2013-05-07 22:17:00,
2013-05-07 15:22:00,45.5,42.1,30.10,ESE,121,3.0,10.0,88,0.00,,,0.05,meteohub,2013-05-07 22:22:00,
2013-05-07 15:27:00,45.5,41.5,30.10,SE,138,2.0,9.0,86,0.00,,,0.05,meteohub,2013-05-07 22:27:00,
2013-05-07 15:32:00,45.9,41.9,30.10,SE,131,4.0,8.0,86,0.00,,,0.05,meteohub,2013-05-07 22:32:00,
2013-05-07 15:37:00,46.2,41.9,30.10,South,176,7.0,12.0,85,0.00,,,0.05,meteohub,2013-05-07 22:37:00,
2013-05-07 15:42:00,46.0,41.7,30.10,SW,229,3.0,13.0,85,0.00,,,0.05,meteohub,2013-05-07 22:42:00,
2013-05-07 15:47:00,46.0,42.1,30.10,SE,131,3.0,14.0,86,0.00,,,0.05,meteohub,2013-05-07 22:47:00,
2013-05-07 15:52:00,46.2,41.9,30.10,ENE,77,3.0,14.0,85,0.00,,,0.05,meteohub,2013-05-07 22:52:00,
2013-05-07 15:57:00,46.8,42.8,30.09,East,94,2.0,11.0,86,0.00,,,0.05,meteohub,2013-05-07 22:57:00,
2013-05-07 16:02:00,47.3,42.4,30.10,South,176,7.0,11.0,83,0.00,,,0.05,meteohub,2013-05-07 23:02:00,
2013-05-07 16:07:00,47.5,42.8,30.10,ESE,114,4.0,9.0,84,0.00,,,0.05,meteohub,2013-05-07 23:07:00,
2013-05-07 16:12:00,47.5,42.6,30.10,ESE,120,3.0,10.0,83,0.00,,,0.05,meteohub,2013-05-07 23:12:00,
2013-05-07 16:17:00,47.5,42.8,30.10,East,95,3.0,11.0,84,0.00,,,0.05,meteohub,2013-05-07 23:17:00,
2013-05-07 16:22:00,46.9,42.4,30.10,SW,222,3.0,11.0,84,0.00,,,0.05,meteohub,2013-05-07 23:22:00,
2013-05-07 16:27:00,46.6,42.3,30.10,East,96,2.0,8.0,85,0.00,,,0.05,meteohub,2013-05-07 23:27:00,
2013-05-07 16:32:00,46.4,42.1,30.10,SW,226,5.0,9.0,85,0.00,,,0.05,meteohub,2013-05-07 23:32:00,
2013-05-07 16:37:00,46.0,41.7,30.10,ESE,115,4.0,9.0,85,0.00,,,0.05,meteohub,2013-05-07 23:37:00,
2013-05-07 16:42:00,45.9,41.5,30.11,SE,133,1.0,10.0,85,0.00,,,0.05,meteohub,2013-05-07 23:42:00,
2013-05-07 16:47:00,45.3,41.4,30.11,ESE,105,6.0,10.0,86,0.00,,,0.05,meteohub,2013-05-07 23:47:00,
2013-05-07 16:52:00,45.0,41.0,30.11,SSW,193,4.0,10.0,86,0.00,,,0.05,meteohub,2013-05-07 23:52:00,
2013-05-07 16:57:00,44.8,41.4,30.11,SE,129,3.0,12.0,88,0.00,,,0.05,meteohub,2013-05-07 23:57:00,
2013-05-07 17:02:00,44.8,41.4,30.11,SE,129,1.0,12.0,88,0.00,,,0.05,meteohub,2013-05-08 00:02:00,
2013-05-07 17:12:00,44.8,41.4,30.10,SSW,203,5.0,10.0,88,0.00,,,0.05,meteohub,2013-05-08 00:12:00,
2013-05-07 17:17:00,44.4,41.2,30.10,ESE,120,2.0,14.0,88,0.00,,,0.05,meteohub,2013-05-08 00:17:00,
2013-05-07 17:22:00,44.2,41.2,30.10,South,176,2.0,14.0,89,0.00,,,0.05,meteohub,2013-05-08 00:22:00,
2013-05-07 17:27:00,44.1,41.0,30.10,ENE,63,1.0,14.0,89,0.00,,,0.05,meteohub,2013-05-08 00:27:00,
2013-05-07 17:32:00,44.2,41.2,30.10,SSE,148,4.0,8.0,89,0.00,,,0.05,meteohub,2013-05-08 00:32:00,
2013-05-07 17:37:00,44.1,41.0,30.10,SSE,165,4.0,11.0,89,0.00,,,0.05,meteohub,2013-05-08 00:37:00,
2013-05-07 17:42:00,43.9,41.2,30.10,SSW,210,3.0,11.0,90,0.00,,,0.05,meteohub,2013-05-08 00:42:00,
2013-05-07 17:47:00,43.9,41.2,30.10,ESE,111,4.0,11.0,90,0.00,,,0.05,meteohub,2013-05-08 00:47:00,
2013-05-07 17:52:00,43.9,41.2,30.10,ESE,103,2.0,9.0,90,0.00,,,0.05,meteohub,2013-05-08 00:52:00,
2013-05-07 17:57:00,43.7,41.2,30.10,SSE,148,4.0,7.0,91,0.00,,,0.05,meteohub,2013-05-08 00:57:00,
2013-05-07 18:02:00,43.7,41.0,30.10,ESE,103,1.0,11.0,90,0.00,,,0.05,meteohub,2013-05-08 01:02:00,
2013-05-07 18:07:00,43.7,41.2,30.10,ESE,107,6.0,11.0,91,0.00,,,0.05,meteohub,2013-05-08 01:07:00,
2013-05-07 18:12:00,43.5,41.0,30.10,South,185,0.0,11.0,91,0.00,,,0.05,meteohub,2013-05-08 01:12:00,
2013-05-07 18:17:00,43.5,41.0,30.10,East,93,3.0,9.0,91,0.00,,,0.05,meteohub,2013-05-08 01:17:00,
2013-05-07 18:22:00,43.5,41.4,30.10,ESE,114,3.0,10.0,92,0.00,,,0.05,meteohub,2013-05-08 01:22:00,
2013-05-07 18:27:00,43.7,41.5,30.11,SSW,201,1.0,10.0,92,0.00,,,0.05,meteohub,2013-05-08 01:27:00,
2013-05-07 18:32:00,43.5,41.4,30.10,SSE,152,3.0,10.0,92,0.00,,,0.05,meteohub,2013-05-08 01:32:00,
2013-05-07 18:42:00,43.2,41.0,30.10,East,96,4.0,10.0,92,0.00,,,0.05,meteohub,2013-05-08 01:42:00,
2013-05-07 18:47:00,43.0,40.8,30.10,SSE,151,4.0,11.0,92,0.00,,,0.05,meteohub,2013-05-08 01:47:00,
2013-05-07 18:52:00,43.0,41.2,30.10,East,93,0.0,11.0,93,0.00,,,0.05,meteohub,2013-05-08 01:52:00,
2013-05-07 18:57:00,42.8,40.6,30.10,ESE,113,1.0,10.0,92,0.00,,,0.05,meteohub,2013-05-08 01:57:00,
2013-05-07 19:02:00,42.6,40.5,30.10,SSE,166,3.0,10.0,92,0.00,,,0.05,meteohub,2013-05-08 02:02:00,
2013-05-07 19:07:00,42.4,40.6,30.10,WSW,246,1.0,10.0,93,0.00,,,0.05,meteohub,2013-05-08 02:07:00,
2013-05-07 19:12:00,42.4,40.6,30.10,SSW,204,0.0,10.0,93,0.00,,,0.05,meteohub,2013-05-08 02:12:00,
2013-05-07 19:17:00,42.3,40.5,30.11,SSE,161,7.0,10.0,93,0.00,,,0.05,meteohub,2013-05-08 02:17:00,
2013-05-07 19:22:00,42.1,40.5,30.11,SSW,193,1.0,7.0,94,0.00,,,0.05,meteohub,2013-05-08 02:22:00,
2013-05-07 19:27:00,42.1,40.5,30.11,SSE,153,0.0,7.0,94,0.00,,,0.05,meteohub,2013-05-08 02:27:00,
2013-05-07 19:32:00,41.9,40.3,30.11,South,180,3.0,9.0,94,0.00,,,0.05,meteohub,2013-05-08 02:32:00,
2013-05-07 19:37:00,41.5,39.7,30.11,South,176,0.0,9.0,93,0.00,,,0.05,meteohub,2013-05-08 02:37:00,
2013-05-07 19:42:00,41.4,39.7,30.11,SE,135,1.0,9.0,94,0.00,,,0.05,meteohub,2013-05-08 02:42:00,
2013-05-07 19:47:00,41.4,39.7,30.11,South,191,1.0,9.0,94,0.00,,,0.05,meteohub,2013-05-08 02:47:00,
2013-05-07 19:52:00,41.2,39.9,30.12,SE,141,0.0,9.0,95,0.00,,,0.05,meteohub,2013-05-08 02:52:00,
2013-05-07 19:57:00,41.2,39.9,30.12,SW,235,2.0,7.0,95,0.00,,,0.05,meteohub,2013-05-08 02:57:00,
2013-05-07 20:02:00,41.2,39.9,30.12,East,98,1.0,7.0,95,0.00,,,0.05,meteohub,2013-05-08 03:02:00,
2013-05-07 20:07:00,41.4,40.3,30.12,ESE,123,5.0,7.0,96,0.00,,,0.05,meteohub,2013-05-08 03:07:00,
2013-05-07 20:12:00,41.4,40.3,30.12,ESE,113,4.0,9.0,96,0.00,,,0.05,meteohub,2013-05-08 03:12:00,
2013-05-07 20:17:00,41.4,40.3,30.12,SSE,162,0.0,9.0,96,0.00,,,0.05,meteohub,2013-05-08 03:17:00,
2013-05-07 20:27:00,41.4,40.3,30.12,ENE,77,2.0,9.0,96,0.00,,,0.05,meteohub,2013-05-08 03:27:00,
2013-05-07 20:32:00,41.2,40.5,30.12,SE,134,1.0,9.0,97,0.00,,,0.05,meteohub,2013-05-08 03:32:00,
2013-05-07 20:37:00,41.2,40.5,30.12,SSE,167,0.0,7.0,97,0.00,,,0.05,meteohub,2013-05-08 03:37:00,
2013-05-07 20:42:00,41.0,40.3,30.11,ESE,108,3.0,7.0,97,0.00,,,0.05,meteohub,2013-05-08 03:42:00,
2013-05-07 20:47:00,40.8,40.1,30.11,SW,231,3.0,6.0,97,0.00,,,0.05,meteohub,2013-05-08 03:47:00,
2013-05-07 20:52:00,40.8,40.1,30.12,East,93,6.0,6.0,97,0.00,,,0.05,meteohub,2013-05-08 03:52:00,
2013-05-07 20:57:00,40.8,40.1,30.12,SW,221,0.0,8.0,97,0.00,,,0.05,meteohub,2013-05-08 03:57:00,
2013-05-07 21:02:00,40.6,39.9,30.12,SSE,150,3.0,8.0,97,0.00,,,0.05,meteohub,2013-05-08 04:02:00,
2013-05-07 21:07:00,40.6,39.9,30.12,SSE,155,4.0,11.0,97,0.00,,,0.05,meteohub,2013-05-08 04:07:00,
2013-05-07 21:12:00,40.6,39.9,30.12,SSE,158,3.0,11.0,97,0.00,,,0.05,meteohub,2013-05-08 04:12:00,
2013-05-07 21:17:00,40.6,39.9,30.13,SSW,195,0.0,11.0,97,0.00,,,0.05,meteohub,2013-05-08 04:17:00,
2013-05-07 21:22:00,40.6,39.9,30.13,SE,139,2.0,6.0,97,0.00,,,0.05,meteohub,2013-05-08 04:22:00,
2013-05-07 21:27:00,40.6,39.9,30.13,SSE,155,4.0,8.0,97,0.00,,,0.05,meteohub,2013-05-08 04:27:00,
2013-05-07 21:32:00,40.5,39.7,30.13,SW,214,3.0,8.0,97,0.00,,,0.05,meteohub,2013-05-08 04:32:00,
2013-05-07 21:37:00,40.5,39.7,30.13,SSE,152,4.0,8.0,97,0.00,,,0.05,meteohub,2013-05-08 04:37:00,
2013-05-07 21:42:00,40.5,39.7,30.12,South,169,2.0,8.0,97,0.00,,,0.05,meteohub,2013-05-08 04:42:00,
2013-05-07 21:47:00,40.3,39.6,30.13,SE,127,8.0,12.0,97,0.00,,,0.05,meteohub,2013-05-08 04:47:00,
2013-05-07 21:52:00,40.3,39.6,30.13,SE,135,6.0,12.0,97,0.00,,,0.05,meteohub,2013-05-08 04:52:00,
2013-05-07 21:57:00,40.3,39.6,30.13,SSW,194,3.0,12.0,97,0.00,,,0.05,meteohub,2013-05-08 04:57:00,
2013-05-07 22:02:00,40.1,39.6,30.13,SE,128,2.0,9.0,98,0.00,,,0.05,meteohub,2013-05-08 05:02:00,
2013-05-07 22:07:00,40.1,39.6,30.13,ESE,107,2.0,8.0,98,0.00,,,0.05,meteohub,2013-05-08 05:07:00,
2013-05-07 22:12:00,40.1,39.6,30.14,SSE,150,4.0,8.0,98,0.00,,,0.05,meteohub,2013-05-08 05:12:00,
2013-05-07 22:17:00,39.9,39.4,30.14,SE,143,3.0,8.0,98,0.00,,,0.05,meteohub,2013-05-08 05:17:00,
2013-05-07 22:22:00,39.9,39.4,30.14,South,172,4.0,9.0,98,0.00,,,0.05,meteohub,2013-05-08 05:22:00,
2013-05-07 22:27:00,39.9,39.4,30.14,SSE,153,2.0,13.0,98,0.00,,,0.05,meteohub,2013-05-08 05:27:00,
2013-05-07 22:32:00,39.9,39.4,30.14,NE,41,4.0,13.0,98,0.00,,,0.05,meteohub,2013-05-08 05:32:00,
2013-05-07 22:37:00,39.9,39.4,30.14,ESE,113,5.0,13.0,98,0.00,,,0.05,meteohub,2013-05-08 05:37:00,
2013-05-07 22:42:00,39.9,39.4,30.14,East,89,2.0,12.0,98,0.00,,,0.05,meteohub,2013-05-08 05:42:00,
2013-05-07 22:47:00,39.7,39.2,30.14,ESE,117,2.0,13.0,98,0.00,,,0.05,meteohub,2013-05-08 05:47:00,
2013-05-07 22:52:00,39.6,39.0,30.14,South,184,4.0,13.0,98,0.00,,,0.05,meteohub,2013-05-08 05:52:00,
2013-05-07 22:57:00,39.7,39.2,30.14,ENE,78,5.0,13.0,98,0.00,,,0.05,meteohub,2013-05-08 05:57:00,
2013-05-07 23:02:00,39.7,39.2,30.14,SE,139,4.0,13.0,98,0.00,,,0.05,meteohub,2013-05-08 06:02:00,
2013-05-07 23:07:00,39.7,39.2,30.14,ESE,105,5.0,11.0,98,0.00,,,0.05,meteohub,2013-05-08 06:07:00,
2013-05-07 23:12:00,39.7,39.2,30.15,SSE,156,1.0,11.0,98,0.00,,,0.05,meteohub,2013-05-08 06:12:00,
2013-05-07 23:17:00,39.6,39.0,30.15,South,185,4.0,11.0,98,0.00,,,0.05,meteohub,2013-05-08 06:17:00,
2013-05-07 23:22:00,39.6,39.0,30.15,ESE,117,6.0,11.0,98,0.00,,,0.05,meteohub,2013-05-08 06:22:00,
2013-05-07 23:27:00,39.6,39.0,30.14,SSW,204,4.0,11.0,98,0.00,,,0.05,meteohub,2013-05-08 06:27:00,
2013-05-07 23:32:00,39.6,39.0,30.15,ESE,106,1.0,11.0,98,0.00,,,0.05,meteohub,2013-05-08 06:32:00,
2013-05-07 23:37:00,39.6,39.0,30.15,SE,124,2.0,11.0,98,0.00,,,0.05,meteohub,2013-05-08 06:37:00,
2013-05-07 23:42:00,39.6,39.0,30.15,ESE,110,3.0,11.0,98,0.00,,,0.05,meteohub,2013-05-08 06:42:00,
2013-05-07 23:47:00,39.6,39.0,30.14,South,183,2.0,11.0,98,0.00,,,0.05,meteohub,2013-05-08 06:47:00,
2013-05-07 23:52:00,39.6,39.0,30.15,ESE,103,3.0,11.0,98,0.00,,,0.05,meteohub,2013-05-08 06:52:00,
2013-05-07 23:57:00,39.6,39.0,30.15,East,87,4.0,11.0,98,0.00,,,0.05,meteohub,2013-05-08 06:57:00,